STARLINK-11524, 62839

Orbit data source: Space-Track

STARLINK-11524, 62839 is a payload satellite owned by SpaceX/Seattle (US) in LEO that was launched on Mon, 27 Jan 2025 UTC via an FALCON 9 launch vehicle from the Air Force Eastern Test Range (AFETR). Payload-class satellites include a variety of spacecraft equipped with specific instruments for various scientific and technological missions. These include communications satellites like Starlink; space stations such as the ISS; scientific satellites like the Hubble; Earth observation satellites from companies like Planet Labs, Umbra, and HawkEye 360; GPS; miniature CubeSats for education and research; and military/defense satellites.

Loading next visibility...
Identifier
62839, 2025-019L
Orbit
LEO
Last TLE update
8 hours ago
Origin
Manufacturer
SpaceX/Seattle
Mission
Operational Commercial Communications
Bus & Motor
STARLINK V2M, Unknown motor
Mass
730 kg wet, ~700 kg dry
Launch date (UTC)
2025-01-27 (3 months ago)
Launch vehicle
FALCON 9
Launch site
Air Force Eastern Test Range (AFETR)
Object type
Payload
Rocket body
Debris
Shape & HBR
Box + 2 Pan, 29 m
Radar Cross Section
36.964 m², Large (>1 m²)

Expand to show TLE details & history

TLE from 8 hours ago
0 STARLINK-11524
1 62839U 25019L   25128.91750059  .00000175  00000-0  48936-5 0  9997
2 62839  43.0037 343.4378 0005545 246.7467 113.2817 15.70833830 15944
Epoch: 2025-05-08T22:01Z
Definitive object data (Epoch: 2025-05-08T22:01:12.05Z)
Latitude
-0.00005°
Longitude
146.15642°
Altitude
357.762 km
Speed
7.696 km/s
True Right ascension
22h 53m 45s
True Declination
0° 00' 00"
Sunlit
Object was in daylight at TLE epoch
Visualization TLE readout
Latitude
-13.38873°
Longitude
129.55875°
Altitude
359.061 km
Speed
7.695 km/s
Apparent Right ascension
23h 26m 22s
Apparent Declination
-29° 18' 56"
Sunlit
Object is in daylight
Visualization observer readout
Local Sidereal Time
13:42:40
Azimuth
79.8° E
Elevation
-60.24°
Doppler factor
1
Orbital elements
Apogee altitude
362.229 km
Perigee altitude
354.758 km
Semi-major axis
6,736.631 km
Eccentricity
0.0005545
Inclination
43.0037°
RAAN
343.4378°
Arg. of periapsis
246.7467°
True anomaly
113.34005°
Mean anomaly
113.2817°
Eccentric anomaly
113.31088°
Mean motion
3.92536 °/min
BSTAR
0.0000048936
Orbital period
91.71 mins
Loading maneuver chart data...
Loading SW <> Apogee altitude chart data...
Loading historical data...
Loading historical data...
Loading historical data...
Loading historical data...
Loading historical data...
Loading historical data...
Loading historical data...

STARLINK-11524 Visibility forecast

Observer location: undefined°, undefined°

Span
Click to sort rows by Start time (UTC) header in descending order
Start Az.
Max El. time (UTC)
Max El. Az.
Max El.
End time (UTC)
End Az.
4 mins2025-05-09 18:05:58.665Z232.089° WSW2025-05-09 18:07:58.665Z153.715° SSE40.274°2025-05-09 18:09:58.665Z80.829° E
4 mins2025-05-09 19:42:58.665Z296.104° NW2025-05-09 19:43:58.665Z342.435° N35.991°2025-05-09 19:46:58.665Z69.535° E
4 mins2025-05-09 21:18:58.665Z301.101° NW2025-05-09 21:19:58.665Z329.379° NNW36.174°2025-05-09 21:22:58.665Z88.966° E
4 mins2025-05-09 22:54:58.665Z263.921° W2025-05-09 22:56:58.665Z183.396° SSW29.652°2025-05-09 22:58:58.665Z139.944° SSE
|